Weather in Vezhayka

Russia / Komi Republic     62°33′22″N   49°44′18″E
temp.,
°C
wind,
m/s
gust,
m/s
humid.,
%
clouds,
%
prec.,
mm/h
press.,
hPa
HPBL,
m
25 january, tue
tue2500:00−6sw61792100 0.1 1015688
03:00−6sw51692100 0.3 1014732
06:00−6sw51592100 0.2 1012715
09:00−7sw51491100 0.3 1011664
12:00−7sw51392100 0.3 1011645
15:00−7sw51293100 0.5 1010675
18:00−7sw41293100 0.6 1010679
21:00−7sw41194100 1.3 1010593
26 january, wed
wed2600:00−8sw41094100 0.8 1011541
03:00−8ssw3995100 1.4 1011435
06:00−8ssw3895100 0.6 1011373
09:00−9ssw3795100 1.1 1013273
12:00−9sw2594100 0.3 1013255
15:00−10ssw249788 0.4 101495
18:00−14ssw139989 0.1 101554
21:00−15ssw149986 0.1 101567
27 january, thu
thu2700:00−18ssw1110097 0.1 101510
03:00−20ssw1110098 0.1 101515
06:00−20s1310099 0.1 101542
09:00−21s13100100 0.1 101542
12:00−15ssw2497100 0.1 1014143
15:00−16s1399100 0.1 101454
18:00−17s26100100 0.0 1013110
21:00−17s2799100 0.1 1013138
28 january, fri
fri2800:00−17s2799100 0.0 1012151
03:00−16s2798100 0.1 1012181
06:00−16s3898100 0.0 1012233
09:00−16sse3997100 0.1 1012278
12:00−14s3995100 0.0 1012346
15:00−13sse3995100 0.1 1011387
18:00−13sse31095100 0.0 1012383
21:00−13sse31196100 0.1 1011383
29 january, sat
sat2900:00−12sse31095100 0.1 1011388
03:00−12sse31096100 0.1 1011368
06:00−11sse31095100 0.1 1010406
09:00−10s31094100 0.4 1010476
12:00−8s41094100 0.1 1009492
15:00−8sse3994100 0.2 1008477
18:00−10sse31096100 0.1 1008338
21:00−12sse299687 0.1 1006251